Galliano, LA

2:27 AM CST on February 24, 2017 (GMT -0600)
Galliano

Weather History for KGAO - November, 2013

Change the Weather History Date:

Sunday, November 10, 2013

  Actual Average (KHUM) Record (KHUM)
Temperature  
Mean Temperature 67 °F -  
Max Temperature 75 °F 73 °F 86 °F (1986)
Min Temperature 59 °F 51 °F 26 °F (1991)
Cooling Degree Days 2    
Growing Degree Days 17 (Base 50)    
Moisture  
Dew Point 60 °F    
Average Humidity 81    
Maximum Humidity 100    
Minimum Humidity 55    
Precipitation  
Precipitation 0.00 in - - ()
Sea Level Pressure  
Sea Level Pressure 30.20 in    
Wind  
Wind Speed 8 mph (NNE)    
Max Wind Speed 14 mph    
Max Gust Speed 20 mph    
Visibility 10 miles    
Events      
Averages and records for this station are not official NWS values.
T = Trace of Precipitation, MM = Missing Value Source: NWS Daily Summary

Daily Weather History Graph

Daily Weather History Graph

Search for Another Location

Airport or City:

Trip Planner

Search our weather history database for the weather conditions in past years. The results will help you decide how hot, cold, wet, or windy it might be!

Date:

Astronomy

Nov. 10, 2013 Rise Set
Actual Time 6:21 AM CST 5:08 PM CST
Civil Twilight 5:56 AM CST 5:33 PM CST
Nautical Twilight 5:27 AM CST 6:01 PM CST
Astronomical Twilight 4:59 AM CST 6:29 PM CST
Moon 12:44 PM CST (11/10) No Moon Set
Length of Visible Light 11h 36m
Length of Day
10h 47m
First Quarter, 56% of the Moon is Illuminated
Nov 10
First Quarter
Nov 17
Full
Nov 25
Last Quarter
Dec 2
New
Dec 9
First Quarter

Hourly Weather History & Observations

Time (CST) Temp. Dew Point Humidity Pressure Visibility Wind Dir Wind Speed Gust Speed Precip Events Conditions
12:15 AM 65.3 °F 63.9 °F 95% 30.17 in 10.0 mi NNE 4.6 mph - N/A   Scattered Clouds
12:35 AM 64.8 °F 63.5 °F 96% 30.17 in 10.0 mi NNE 4.6 mph - N/A   Scattered Clouds
12:55 AM 64.2 °F 63.5 °F 98% 30.17 in 10.0 mi North 4.6 mph - N/A   Scattered Clouds
1:15 AM 63.1 °F 63.0 °F 99% 30.17 in 10.0 mi NNW 5.8 mph - N/A   Mostly Cloudy
1:35 AM 63.0 °F 63.0 °F 100% 30.17 in 10.0 mi NNW 8.1 mph - N/A   Overcast
1:55 AM 63.0 °F 63.0 °F 100% 30.17 in 10.0 mi North 10.4 mph - N/A   Overcast
2:15 AM 63.5 °F 63.5 °F 100% 30.17 in 10.0 mi North 10.4 mph - N/A   Overcast
2:35 AM 63.9 °F 63.9 °F 100% 30.17 in 10.0 mi North 10.4 mph - N/A   Overcast
2:55 AM 64.4 °F 64.4 °F 100% 30.17 in 10.0 mi North 10.4 mph - N/A   Overcast
3:15 AM 64.8 °F 64.4 °F 99% 30.17 in 10.0 mi North 8.1 mph - N/A   Overcast
3:35 AM 64.8 °F 64.0 °F 98% 30.17 in 10.0 mi North 8.1 mph - N/A   Overcast
3:55 AM 64.8 °F 63.9 °F 97% 30.18 in 10.0 mi North 9.2 mph - N/A   Overcast
4:15 AM 64.4 °F 63.5 °F 97% 30.18 in 10.0 mi North 9.2 mph - N/A   Mostly Cloudy
4:35 AM 63.7 °F 63.0 °F 97% 30.19 in 10.0 mi North 9.2 mph - N/A   Scattered Clouds
4:55 AM 63.3 °F 62.8 °F 98% 30.19 in 10.0 mi North 6.9 mph - N/A   Scattered Clouds
5:15 AM 63.5 °F 62.2 °F 96% 30.20 in 10.0 mi North 9.2 mph - N/A   Scattered Clouds
5:35 AM 63.1 °F 61.9 °F 96% 30.20 in 10.0 mi North 10.4 mph - N/A   Mostly Cloudy
5:55 AM 62.8 °F 61.3 °F 95% 30.21 in 10.0 mi North 10.4 mph - N/A   Mostly Cloudy
6:15 AM 63.1 °F 60.8 °F 92% 30.22 in 10.0 mi North 10.4 mph - N/A   Scattered Clouds
6:35 AM 63.5 °F 60.4 °F 90% 30.22 in 10.0 mi North 10.4 mph - N/A   Mostly Cloudy
6:55 AM 63.7 °F 60.3 °F 89% 30.22 in 10.0 mi North 10.4 mph - N/A   Mostly Cloudy
7:15 AM 63.7 °F 60.3 °F 89% 30.23 in 10.0 mi North 9.2 mph - N/A   Scattered Clouds
7:35 AM 64.4 °F 60.3 °F 86% 30.23 in 10.0 mi NNE 8.1 mph - N/A   Clear
7:55 AM 65.7 °F 60.3 °F 83% 30.23 in 10.0 mi North 11.5 mph - N/A   Clear
8:15 AM 66.9 °F 60.3 °F 79% 30.24 in 10.0 mi North 12.7 mph - N/A   Scattered Clouds
8:35 AM 68.0 °F 60.6 °F 77% 30.25 in 10.0 mi North 12.7 mph - N/A   Scattered Clouds
8:55 AM 67.1 °F 59.9 °F 78% 30.25 in 10.0 mi North 10.4 mph 16.1 mph N/A   Mostly Cloudy
9:15 AM 67.3 °F 59.9 °F 77% 30.25 in 10.0 mi North 10.4 mph - N/A   Overcast
9:35 AM 67.8 °F 59.9 °F 76% 30.25 in 10.0 mi North 11.5 mph - N/A   Scattered Clouds
9:55 AM 68.5 °F 60.4 °F 75% 30.25 in 10.0 mi North 6.9 mph - N/A   Scattered Clouds
10:15 AM 70.2 °F 60.8 °F 72% 30.24 in 10.0 mi North 9.2 mph - N/A   Scattered Clouds
10:35 AM 72.3 °F 61.0 °F 67% 30.24 in 10.0 mi NNE 9.2 mph - N/A   Scattered Clouds
10:55 AM 73.2 °F 60.1 °F 63% 30.23 in 10.0 mi NNE 9.2 mph - N/A   Mostly Cloudy
11:15 AM 73.0 °F 59.5 °F 62% 30.23 in 10.0 mi NNE 9.2 mph - N/A   Overcast
11:35 AM 73.9 °F 59.4 °F 60% 30.22 in 10.0 mi NNE 13.8 mph - N/A   Mostly Cloudy
11:55 AM 74.7 °F 60.1 °F 60% 30.21 in 10.0 mi NNE 13.8 mph 18.4 mph N/A   Mostly Cloudy
12:15 PM 74.8 °F 59.2 °F 58% 30.20 in 10.0 mi NNE 13.8 mph - N/A   Scattered Clouds
12:35 PM 75.4 °F 59.9 °F 58% 30.19 in 10.0 mi NNE 11.5 mph 17.3 mph N/A   Clear
12:55 PM 75.9 °F 60.4 °F 59% 30.18 in 10.0 mi NNE 13.8 mph - N/A   Clear
1:15 PM 75.6 °F 60.3 °F 59% 30.18 in 10.0 mi NE 12.7 mph 17.3 mph N/A   Clear
1:35 PM 75.4 °F 59.5 °F 58% 30.18 in 10.0 mi NNE 13.8 mph 19.6 mph N/A   Clear
1:55 PM 74.8 °F 59.5 °F 59% 30.18 in 10.0 mi NNE 11.5 mph - N/A   Clear
2:15 PM 75.4 °F 59.5 °F 58% 30.17 in 10.0 mi NNE 12.7 mph 16.1 mph N/A   Clear
2:35 PM 75.2 °F 58.8 °F 57% 30.18 in 10.0 mi NE 10.4 mph - N/A   Clear
2:55 PM 75.4 °F 58.5 °F 56% 30.18 in 10.0 mi NE 9.2 mph 17.3 mph N/A   Clear
3:15 PM 74.7 °F 57.7 °F 55% 30.17 in 10.0 mi NNE 12.7 mph - N/A   Clear
3:35 PM 74.3 °F 57.7 °F 56% 30.17 in 10.0 mi NNE 9.2 mph - N/A   Clear
3:55 PM 73.4 °F 58.6 °F 60% 30.18 in 10.0 mi NNE 5.8 mph - N/A   Clear
4:15 PM 72.0 °F 58.6 °F 63% 30.18 in 10.0 mi NNE 6.9 mph - N/A   Clear
4:35 PM 71.4 °F 59.0 °F 65% 30.18 in 10.0 mi NNE 4.6 mph - N/A   Clear
4:55 PM 69.8 °F 59.2 °F 69% 30.18 in 10.0 mi NE 4.6 mph - N/A   Clear
5:15 PM 68.5 °F 58.8 °F 71% 30.19 in 10.0 mi NE 4.6 mph - N/A   Clear
5:35 PM 67.8 °F 58.5 °F 72% 30.20 in 10.0 mi NE 4.6 mph - N/A   Clear
5:55 PM 66.7 °F 58.3 °F 74% 30.20 in 10.0 mi NE 4.6 mph - N/A   Clear
6:15 PM 66.2 °F 58.5 °F 76% 30.21 in 10.0 mi NE 4.6 mph - N/A   Clear
6:35 PM 66.0 °F 59.0 °F 78% 30.21 in 10.0 mi NNE 3.5 mph - N/A   Clear
6:55 PM 65.5 °F 59.0 °F 80% 30.21 in 10.0 mi NE 4.6 mph - N/A   Clear
7:15 PM 65.5 °F 59.0 °F 80% 30.21 in 10.0 mi NE 3.5 mph - N/A   Clear
7:35 PM 65.1 °F 59.0 °F 81% 30.21 in 10.0 mi NNE 3.5 mph - N/A   Clear
7:55 PM 64.6 °F 58.5 °F 80% 30.22 in 10.0 mi NNE 3.5 mph - N/A   Clear
8:15 PM 63.3 °F 58.3 °F 84% 30.23 in 10.0 mi Calm Calm - N/A   Clear
8:35 PM 60.3 °F 57.7 °F 91% 30.23 in 10.0 mi Calm Calm - N/A   Clear
8:55 PM 59.5 °F 57.6 °F 93% 30.22 in 10.0 mi NNE 3.5 mph - N/A   Clear
9:15 PM 60.6 °F 58.5 °F 93% 30.23 in 10.0 mi Calm Calm - N/A   Clear
9:35 PM 60.3 °F 58.1 °F 93% 30.22 in 10.0 mi North 3.5 mph - N/A   Clear
9:55 PM 60.1 °F 58.1 °F 93% 30.22 in 10.0 mi NNE 3.5 mph - N/A   Clear
10:15 PM 60.3 °F 58.5 °F 94% 30.22 in 10.0 mi North 3.5 mph - N/A   Clear
10:35 PM 59.9 °F 58.5 °F 95% 30.21 in 10.0 mi North 3.5 mph - N/A   Clear
10:55 PM 59.5 °F 58.6 °F 97% 30.21 in 10.0 mi North 3.5 mph - N/A   Clear
11:15 PM 60.8 °F 59.5 °F 96% 30.21 in 10.0 mi North 3.5 mph - N/A   Clear
11:35 PM 60.1 °F 59.0 °F 96% 30.20 in 10.0 mi North 3.5 mph - N/A   Clear
11:55 PM 59.0 °F 58.1 °F 97% 30.20 in 10.0 mi NNW 5.8 mph - N/A   Clear